Regional Weather Roundup
Issued by NWS

Home | Current Version | Previous Version | Text Only | Print | Product List | Glossary Off
Versions: 1 2 3 4 5 6 7 8 9 10 11 12 13 14 15 16 17 18 19 20 21 22 23 24 25 26 27 28 29 30 31 32 33 34 35 36 37 38 39 40 41 42 43 44 45 46 47 48 49 50

000
ASUS43 KLOT 130708
RWRIL

ILLINOIS REGIONAL WEATHER ROUNDUP
NATIONAL WEATHER SERVICE CHICAGO/ROMEOVILLE IL
100 AM CST WED DEC 13 2017

NOTE: "FAIR" INDICATES FEW OR NO CLOUDS BELOW 12,000 FEET WITH NO
SIGNIFICANT WEATHER AND/OR OBSTRUCTIONS TO VISIBILITY.

* THESE STATIONS ARE NOT UNDER NWS QUALITY CONTROL. THEY ALSO MAY NOT
  REPORT WEATHER SUCH AS PRECIPITATION OR FOG.

ILZ001-002-007-009-015-016-024-130800-
NORTHWEST ILLINOIS

CITY           SKY/WX    TMP DP  RH WIND       PRES   REMARKS
MOLINE         CLOUDY    28  10  46 SW6       29.82F WCI  22
STERLING*      CLOUDY    24  12  60 VRB5      29.84F WCI  18
SAVANNA*       CLOUDY    24  15  68 S9        29.81F WCI  14
$$

ILZ003-004-008-010-011-017-018-130800-
NORTH CENTRAL ILLINOIS

CITY           SKY/WX    TMP DP  RH WIND       PRES   REMARKS
ROCKFORD       CLOUDY    22  14  71 S8        29.85F WCI  12
FREEPORT*      CLOUDY    23  11  61 S13       29.82F WCI  11
ROCHELLE*      CLOUDY    23  15  71 S9        29.85F WCI  13
DE KALB*       CLOUDY    21  16  83 S9        29.85F WCI  10
PERU*          CLOUDY    24  10  56 S9        29.88F WCI  14
$$

ILZ005-006-012>014-019>023-130800-
NORTHEAST ILLINOIS

CITY           SKY/WX    TMP DP  RH WIND       PRES   REMARKS
CHICAGO-OHARE  CLOUDY    22   9  57 S5        29.87F WCI  16
CHICAGO-MIDWAY CLOUDY    22   9  57 S6        29.89F WCI  14
AURORA         CLOUDY    21  14  74 S7        29.87F WCI  12
LANSING*       CLOUDY    20  12  69 S6        29.90F WCI  13
JOLIET*        CLOUDY    23  14  67 S5        29.89F WCI  17
WAUKEGAN       CLOUDY    20  10  65 SW6       29.85F WCI  12
DUPAGE AIRPORT CLOUDY    20  13  74 S7        29.86F WCI  11
KANKAKEE*      CLOUDY    22  10  58 S6        29.91F WCI  15
WHEELING       CLOUDY    22   9  57 S6        29.89F WCI  14
MORRIS*        CLOUDY    22  13  67 SE3       29.88F
ROMEOVILLE*    CLOUDY    22  13  69 S9        29.87F WCI  11
NORTHERLY ISL    N/A     22   6  50 S5          N/A  WCI  16
$$

LMZ740>746-130800-
SOUTHERN LAKE MICHIGAN

STATION/POSITION SKY/WX   TEMP    WIND        PRES    VSBY  WAVE
                          AIR SEA DIR/SP/G                  HT/PER
                          (F)     (DEG/KT/KT) (MB)    (MI)  (FT/S)
BURNHAM HARBOR             22     210/  5/  7   N/A
CALUMET HARBOR             22     190/  4/  7 1011.8F
BURNS HARBOR               22     200/ 10/ 11 1012.9F
$$

ILZ025>027-034>036-040-047-049-050-058-095>099-130800-
WEST-CENTRAL ILLINOIS

CITY           SKY/WX    TMP DP  RH WIND       PRES   REMARKS
QUINCY         MOCLDY    25  12  58 S8        29.90F WCI  16
GALESBURG*     CLOUDY    24  13  62 S6        29.86F WCI  17
MACOMB*        CLOUDY    26  11  51 SW9       29.90F WCI  17
JACKSONVILLE*  CLOUDY    26   6  43 SW9       29.93F WCI  16
PITTSFIELD*    CLOUDY    26  10  50 SW7       29.94F WCI  19
$$

ILZ028>032-037-038-041>044-048-051>054-059>061-130800-
CENTRAL ILLINOIS

CITY           SKY/WX    TMP DP  RH WIND       PRES   REMARKS
PONTIAC        CLOUDY    25   9  51 S7        29.91F WCI  17
BLOOMINGTON    CLOUDY    22  10  60 S9        29.91F WCI  12
DECATUR        CLOUDY    19   8  62 SW8       29.94F WCI   9
PEORIA         CLOUDY    24  10  55 S6        29.90F WCI  17
LACON*         CLOUDY    24   8  52 S5        29.88F WCI  18
LINCOLN*       CLOUDY    22  10  59 CALM      29.94F
SPRINGFIELD    CLOUDY    25   6  44 SW6       29.94F WCI  18
TAYLORVILLE    CLOUDY    23   8  52 SW7       29.95F WCI  14
$$

ILZ033-039-045-046-055>057-062-063-130800-
EAST-CENTRAL ILLINOIS

CITY           SKY/WX    TMP DP  RH WIND       PRES   REMARKS
CHAMPAIGN      CLOUDY    23  10  57 SW8       29.94F WCI  14
DANVILLE*      CLOUDY    20  10  63 S5        29.92F WCI  14
RANTOUL*       CLOUDY    26  11  54 SW5       29.93F WCI  20
MATTOON        CLOUDY    22  10  60 S6        29.96F WCI  14
PARIS*         CLOUDY    22  11  62 SW7       29.98F WCI  14
$$

ILZ079-100>102-130800-
SOUTHWEST ILLINOIS

CITY           SKY/WX    TMP DP  RH WIND       PRES   REMARKS
ALTON          CLOUDY    22  12  65 S7        29.99F WCI  13
BELLEVILLE     CLOUDY    20  10  62 S6        30.00F WCI  13
CAHOKIA*       CLOUDY    22   8  55 CALM      30.01F
SPARTA*        CLOUDY    27  10  48 S5        30.04F WCI  22
$$

ILZ064>066-069>071-074>076-080>082-084>086-088>090-092>094-130800-
SOUTH-CENTRAL ILLINOIS

CITY           SKY/WX    TMP DP  RH WIND       PRES   REMARKS
CARBONDALE     CLEAR     23  12  62 S5        30.05F WCI  17
CAIRO*         PTCLDY    27  14  58 S3        30.08F
EFFINGHAM*     CLOUDY    22  11  61 S3        30.00F
MARION         CLOUDY    25  11  55 S5        30.06F WCI  19
MT. VERNON     CLOUDY    19  14  81 CALM      30.03F
CENTRALIA*     CLOUDY    24  14  65 CALM      30.01F
SALEM*         CLOUDY    25   9  50 S6        30.01F WCI  18
METROPOLIS*    CLOUDY    20  15  80 CALM      30.08F
$$

ILZ067-068-072-073-078-083-087-091-130800-
SOUTHEAST ILLINOIS

CITY           SKY/WX    TMP DP  RH WIND       PRES   REMARKS
LAWRENCEVILLE  CLOUDY    20  11  68 S7        30.03F WCI  11
FLORA*         CLOUDY    22  15  72 SW5       30.02F WCI  16
FAIRFIELD*     CLOUDY    21  13  70 CALM      30.03F
HARRISBURG*    CLOUDY    20  14  77 CALM      30.06F
ROBINSON*      CLEAR     16  11  80 CALM      30.03F
CARMI*         CLOUDY    22  14  71 S3        30.04F
$$

ABBREVIATIONS USED IN REMARKS
   TC - TEMPERATURE IN CELSIUS
  WCI - WIND CHILL INDEX
   HX - HEAT INDEX
  VSB - VISIBILITY
$$




USA.gov is the U.S. government's official web portal to all federal, state and local government web resources and services.